WE3C Weather Reports


Display with metric or nautical units.
time (UTC)temp
F
wind
direction
speed
MPH
gust
MPH
rain 1hr
in
rain 24hr
in
rain mn
in
humidity
%
barometer
mb
20260903033057 68 128 0.0 0.0 0.00 0.00 0.00 82 1023.2
20260903031556 68 126 0.0 0.0 0.00 0.00 0.00 82 1023.2
20260903030050 68 135 0.0 0.0 0.00 0.00 0.00 82 1023.0
20260903024550 68 134 0.0 0.0 0.00 0.00 0.00 82 1022.9
20260903023049 68 132 0.0 0.0 0.00 0.00 0.00 82 1022.8
20260903021549 69 136 0.0 0.0 0.00 0.00 0.00 82 1023.1
20260903020048 68 137 0.0 0.0 0.00 0.00 0.00 82 1023.1
20260903014551 69 138 0.0 0.0 0.00 0.00 0.00 82 1022.8
20260903013057 69 132 0.0 0.0 0.00 0.00 0.00 82 1022.8
20260903011547 69 136 0.0 0.0 0.00 0.00 0.00 81 1022.7
20260903010048 69 148 0.0 0.0 0.00 0.00 0.00 81 1022.7
20260903004545 69 140 0.0 0.0 0.00 0.00 0.00 81 1023.1
20260903003048 69 137 0.0 0.0 0.00 0.00 0.00 81 1022.9
20260903001544 69 136 0.0 0.0 0.00 0.00 0.00 81 1022.8
20260903000045 69 139 0.0 0.0 0.00 0.00 0.00 81 1022.7
20260902234557 69 136 0.0 0.0 0.00 0.00 0.00 81 1022.6
20260902233041 69 138 0.0 0.0 0.00 0.00 0.00 81 1022.2
20260902231542 69 134 0.0 0.0 0.00 0.00 0.00 81 1022.5
20260902230041 69 127 0.0 0.0 0.00 0.00 0.00 81 1022.5
20260902224558 69 98 0.0 0.0 0.00 0.00 0.00 81 1022.5
20260902223037 69 119 0.0 0.0 0.00 0.00 0.00 82 1022.7
20260902221536 69 122 0.0 0.0 0.00 0.00 0.00 81 1022.9
20260902220039 70 126 0.0 0.0 0.00 0.00 0.00 81 1023.1
20260902214535 70 135 0.0 0.0 0.00 0.00 0.00 81 1023.0
20260902213035 69 140 0.0 0.0 0.00 0.00 0.00 81 1023.2
20260902211534 69 142 0.0 0.0 0.00 0.00 0.00 82 1023.0
20260902210034 69 142 0.0 0.0 0.00 0.00 0.00 82 1022.9
20260902204538 69 137 0.0 0.0 0.00 0.00 0.00 82 1022.6
20260902203036 69 128 0.0 0.0 0.00 0.00 0.00 82 1022.4
20260902201524 69 126 0.0 0.0 0.00 0.00 0.00 82 1022.6
20260902200036 70 132 0.0 0.0 0.00 0.00 0.00 81 1022.9
20260902194523 70 140 0.0 0.0 0.00 0.00 0.00 81 1023.1
20260902193020 69 128 0.0 0.0 0.00 0.00 0.00 82 1023.4
20260902191520 69 130 0.0 0.0 0.00 0.00 0.00 82 1022.7
20260902190033 69 131 0.0 0.0 0.00 0.00 0.00 81 1022.9
20260902184519 69 121 0.0 0.0 0.00 0.00 0.00 81 1023.0
20260902183018 69 123 0.0 0.0 0.00 0.00 0.00 82 1023.1
20260902181518 68 135 0.0 0.0 0.00 0.00 0.00 82 1023.8
20260902180017 68 155 0.0 0.0 0.00 0.00 0.00 81 1024.0
20260902174517 68 138 0.0 0.0 0.00 0.00 0.00 81 1024.0
20260902173016 68 147 0.0 0.0 0.00 0.00 0.00 81 1024.2
20260902171514 68 153 0.0 0.0 0.00 0.00 0.00 81 1024.3
20260902170013 68 171 0.0 0.0 0.00 0.00 0.00 81 1024.5
20260902164516 68 142 0.0 0.0 0.00 0.00 0.00 81 1024.2
20260902163012 68 140 0.0 0.0 0.00 0.00 0.00 81 1024.9
20260902161512 68 132 0.0 0.0 0.00 0.00 0.00 81 1024.7
20260902160015 68 116 0.0 0.0 0.00 0.00 0.00 81 1024.7
20260902154510 68 118 0.0 0.0 0.00 0.00 0.00 81 1024.5
20260902153009 68 142 0.0 0.0 0.00 0.00 0.00 81 1024.3
20260902151509 68 112 0.0 0.0 0.00 0.00 0.00 81 1024.0
20260902150008 68 117 0.0 0.0 0.00 0.00 0.00 82 1024.2
20260902144508 68 130 0.0 0.0 0.00 0.00 0.00 82 1024.4
20260902143007 68 121 0.0 0.0 0.00 0.00 0.00 82 1024.5
20260902141506 68 122 0.0 0.0 0.00 0.00 0.00 82 1024.5
20260902140005 67 115 0.0 0.0 0.00 0.00 0.00 81 1024.5
20260902134505 67 125 0.0 0.0 0.00 0.00 0.00 81 1024.3
20260902133003 67 115 0.0 0.0 0.00 0.00 0.00 81 1024.0
20260902131501 67 117 0.0 0.0 0.00 0.00 0.00 81 1023.9
20260902124602 67 119 0.0 0.0 0.00 0.00 0.00 81 1023.8
20260902123059 67 119 0.0 0.0 0.00 0.00 0.00 81 1023.7
20260902121600 68 123 0.0 0.0 0.00 0.00 0.00 81 1023.5
20260902120054 68 103 0.0 0.0 0.00 0.00 0.00 81 1023.4
20260902114554 68 130 0.0 0.0 0.00 0.00 0.00 81 1023.4
20260902113108 68 121 0.0 0.0 0.00 0.00 0.00 81 1023.3
20260902111559 68 126 0.0 0.0 0.00 0.00 0.00 81 1023.0
20260902110051 68 108 0.0 0.0 0.00 0.00 0.00 81 1023.1
20260902104550 69 130 0.0 0.0 0.00 0.00 0.00 81 1023.2
20260902103050 69 108 0.0 0.0 0.00 0.00 0.00 81 1023.1
20260902101603 69 142 0.0 0.0 0.00 0.00 0.00 81 1023.0
20260902100041 69 120 0.0 0.0 0.00 0.00 0.00 81 1022.8
20260902094547 69 129 0.0 0.0 0.00 0.00 0.00 81 1022.7
20260902093039 69 141 0.0 0.0 0.00 0.00 0.00 81 1022.7
20260902091545 69 131 0.0 0.0 0.00 0.00 0.00 81 1022.6
20260902090037 69 144 0.0 0.0 0.00 0.00 0.00 81 1022.6
20260902084536 69 144 0.0 0.0 0.00 0.00 0.00 81 1022.5
20260902083034 69 143 0.0 0.0 0.00 0.00 0.00 81 1022.2
20260902081534 69 142 0.0 0.0 0.00 0.00 0.00 81 1022.1
20260902080034 69 124 0.0 0.0 0.00 0.00 0.00 81 1021.9
20260902074533 69 128 0.0 0.0 0.00 0.00 0.00 81 1021.8
20260902073034 69 115 0.0 0.0 0.00 0.00 0.00 81 1021.8
20260902071533 68 115 0.0 0.0 0.00 0.00 0.00 81 1021.7
20260902070030 68 111 0.0 0.0 0.00 0.00 0.00 81 1021.7
20260902064529 68 84 0.0 0.0 0.00 0.00 0.00 81 1021.6
20260902063029 69 42 0.0 0.0 0.00 0.00 0.00 81 1021.7
20260902061530 69 160 0.0 0.0 0.00 0.00 0.00 81 1021.9
20260902060033 69 160 0.0 0.0 0.00 0.00 0.00 80 1021.8
20260902054525 69 160 0.0 0.0 0.00 0.00 0.00 80 1021.9
20260902053034 69 160 0.0 0.0 0.00 0.00 0.00 80 1022.1
20260902051529 69 160 0.0 0.0 0.00 0.00 0.00 80 1022.1
20260902050023 69 160 0.0 0.0 0.00 0.00 0.00 80 1021.8
20260902044621 69 171 0.0 0.0 0.00 0.00 0.00 80 1021.8
20260902043022 69 136 0.0 0.0 0.00 0.00 0.00 80 1022.2
20260902041519 69 135 0.0 0.0 0.00 0.00 0.00 80 1022.1
20260902040017 69 135 0.0 0.0 0.00 0.00 0.00 80 1022.1
20260902034516 70 134 0.0 0.0 0.00 0.00 0.00 80 1022.0